Tracking 19176 objects as of 25-May-2018
HD Live streaming from Space Station
objects crossing your sky now

COSMOS 1754

Track COSMOS 1754 now!
10-day predictions
COSMOS 1754 is classified as:


NORAD ID: 16764
Int'l Code: 1986-042G
Perigee: 1,445.3 km
Apogee: 1,476.6 km
Inclination: 74.0 °
Period: 115.0 minutes
Semi major axis: 7831 km
RCS: 0.7328 m2 (medium)
Launch date: June 6, 1986
Source: Commonwealth of Independent States (former USSR) (CIS)
Launch site: PLESETSK MISSILE AND SPACE COMPLEX (PKMTR)
aabbcc
Your satellite tracking list
Your tracking list is empty




NASA's NSSDC Master Catalog

Two Line Element Set (TLE):
1 16764U 86042G   18144.58997690 -.00000020 +00000-0 -22715-4 0  9990
2 16764 074.0174 203.5304 0019951 138.2617 333.6055 12.52563067286333
Source of the keplerian elements: AFSPC